�v������,���r���O(���x),�����t���O,���r���O(���x),�����t���O,��1(���x),�����t���O,�������x,�����t���O,�C�ۑ�(���x),�����t���O,�C�ۑ�(���x),�����t���O
11/1/2003 0:00,23.6,0,59.5,0,23.7,0,19,0,16.5,0,71.8,0
11/1/2003 0:15,23.6,0,59.1,0,23.7,0,19,0,16.5,0,71.6,0
11/1/2003 0:30,23.6,0,58.8,0,23.7,0,19.1,0,16.5,0,71.3,0
11/1/2003 0:45,23.5,0,58.6,0,23.6,0,19.2,0,16.5,0,71.1,0
11/1/2003 1:00,23.5,0,58.3,0,23.6,0,19.2,0,16.5,0,70.8,0
11/1/2003 1:15,23.4,0,58.2,0,23.5,0,19.3,0,16.4,0,71.3,0
11/1/2003 1:30,23.4,0,58.1,0,23.5,0,19.4,0,16.3,0,71.8,0
11/1/2003 1:45,23.3,0,58,0,23.4,0,19.4,0,16.2,0,72.3,0
11/1/2003 2:00,23.3,0,57.9,0,23.4,0,19.5,0,16.1,0,72.8,0
11/1/2003 2:15,23.2,0,57.7,0,23.4,0,19.5,0,16.1,0,72.1,0
11/1/2003 2:30,23.1,0,57.7,0,23.3,0,19.6,0,16,0,71.3,0
11/1/2003 2:45,23.1,0,57.7,0,23.2,0,19.6,0,16,0,70.6,0
11/1/2003 3:00,23,0,57.5,0,23.2,0,19.7,0,16,0,69.8,0
11/1/2003 3:15,22.9,0,57.4,0,23.1,0,19.7,0,15.9,0,68.1,0
11/1/2003 3:30,22.9,0,57.3,0,23.1,0,19.8,0,15.9,0,66.3,0
11/1/2003 3:45,22.8,0,57.3,0,23,0,19.8,0,15.8,0,64.6,0
11/1/2003 4:00,22.7,0,57.2,0,23,0,19.9,0,15.8,0,62.8,0
11/1/2003 4:15,22.7,0,57.1,0,22.9,0,19.9,0,15.8,0,62,0
11/1/2003 4:30,22.6,0,57.1,0,22.8,0,19.9,0,15.9,0,61.3,0
11/1/2003 4:45,22.5,0,57,0,22.8,0,20,0,15.9,0,60.5,0
11/1/2003 5:00,22.5,0,56.9,0,22.7,0,20,0,16,0,59.8,0
11/1/2003 5:15,22.5,0,56.9,0,22.6,0,20.1,0,15.9,0,60.3,0
11/1/2003 5:30,22.4,0,57,0,22.6,0,20.1,0,15.8,0,60.8,0
11/1/2003 5:45,22.3,0,56.8,0,22.6,0,20.2,0,15.7,0,61.3,0
11/1/2003 6:00,22.2,0,56.5,0,22.5,0,20.2,0,15.6,0,61.8,0
11/1/2003 6:15,22.1,0,56.4,0,22.5,0,20.2,0,15.2,0,64.8,0
11/1/2003 6:30,22,0,56.4,0,22.5,0,20.3,0,14.8,0,67.8,0
11/1/2003 6:45,22.2,0,56.2,0,22.5,0,20.3,0,14.4,0,70.8,0
11/1/2003 7:00,22.5,0,55.6,0,22.4,0,20.3,0,14,0,73.8,0
11/1/2003 7:15,22.7,0,55.3,0,22.4,0,20.3,0,13.9,0,75.8,0
11/1/2003 7:30,22.9,0,55.5,0,22.4,0,20.3,0,13.9,0,77.8,0
11/1/2003 7:45,23,0,55.3,0,22.5,0,20.4,0,13.8,0,79.8,0
11/1/2003 8:00,22.9,0,55.8,0,22.5,0,20.4,0,13.8,0,81.8,0
11/1/2003 8:15,22.8,0,55.4,0,22.4,0,19.3,0,14,0,81.6,0
11/1/2003 8:30,22.8,0,57.3,0,22.3,0,19.3,0,14.3,0,81.3,0
11/1/2003 8:45,22.7,0,55.9,0,22.3,0,19.3,0,14.5,0,81.1,0
11/1/2003 9:00,22.6,0,56.3,0,22.3,0,19.4,0,14.8,0,80.8,0
11/1/2003 9:15,22.6,0,56.5,0,22.2,0,19.4,0,15,0,79.3,0
11/1/2003 9:30,22.5,0,57.1,0,22.2,0,19.4,0,15.3,0,77.8,0
11/1/2003 9:45,22.5,0,57.2,0,22.2,0,18.6,0,15.5,0,76.3,0
11/1/2003 10:00,22.5,0,57.9,0,22.2,0,18.6,0,15.8,0,74.8,0
11/1/2003 10:15,22.4,0,58.4,0,22.3,0,18.6,0,16,0,73.8,0
11/1/2003 10:30,22.4,0,58.8,0,22.3,0,18.7,0,16.3,0,72.8,0
11/1/2003 10:45,22.4,0,59.5,0,22.4,0,18.7,0,16.5,0,71.8,0
11/1/2003 11:00,22.5,0,60.7,0,22.4,0,18.7,0,16.8,0,70.8,0
11/1/2003 11:15,22.5,0,60.1,0,22.4,0,18.8,0,17,0,70.8,0
11/1/2003 11:30,22.5,0,59.6,0,22.5,0,18.8,0,17.2,0,70.8,0
11/1/2003 11:45,22.5,0,59.2,0,22.6,0,18.9,0,17.4,0,70.8,0
11/1/2003 12:00,22.4,0,58.9,0,22.6,0,18.9,0,17.6,0,70.8,0
11/1/2003 12:15,22.4,0,59.1,0,22.6,0,18.5,0,17.8,0,70.8,0
11/1/2003 12:30,22.4,0,58.8,0,22.6,0,18.5,0,18,0,70.8,0
11/1/2003 12:45,22.5,0,59.3,0,22.7,0,18.6,0,18.3,0,70.8,0
11/1/2003 13:00,22.5,0,59.3,0,22.7,0,18.6,0,18.5,0,70.8,0
11/1/2003 13:15,22.7,0,59.6,0,22.7,0,18.7,0,18.6,0,71.8,0
11/1/2003 13:30,22.7,0,59.2,0,22.8,0,18.7,0,18.7,0,72.8,0
11/1/2003 13:45,22.7,0,59.1,0,22.9,0,18.7,0,18.9,0,73.8,0
11/1/2003 14:00,22.7,0,59.2,0,23,0,18.8,0,19,0,74.8,0
11/1/2003 14:15,22.7,0,59.2,0,23.1,0,18.8,0,19.1,0,74.8,0
11/1/2003 14:30,22.7,0,59.3,0,23.2,0,18.9,0,19.1,0,74.8,0
11/1/2003 14:45,22.8,0,59.3,0,23.3,0,18.9,0,19.2,0,74.8,0
11/1/2003 15:00,22.8,0,59.4,0,23.4,0,18.9,0,19.3,0,74.8,0
11/1/2003 15:15,22.8,0,59.6,0,23.5,0,19,0,19.3,0,73.8,0
11/1/2003 15:30,22.8,0,59.8,0,23.5,0,19,0,19.3,0,72.8,0
11/1/2003 15:45,22.8,0,59.9,0,23.6,0,18.6,0,19.4,0,71.8,0
11/1/2003 16:00,22.8,0,59.9,0,23.6,0,18.6,0,19.4,0,70.8,0
11/1/2003 16:15,22.8,0,59.9,0,23.6,0,18.6,0,19.5,0,71.8,0
11/1/2003 16:30,22.8,0,59.3,0,23.7,0,18.7,0,19.6,0,72.8,0
11/1/2003 16:45,22.8,0,59.6,0,23.7,0,18.7,0,19.7,0,73.8,0
11/1/2003 17:00,22.7,0,60,0,23.7,0,18.5,0,19.8,0,74.8,0
11/1/2003 17:15,22.6,0,60.1,0,23.7,0,18.6,0,19.8,0,73.8,0
11/1/2003 17:30,22.5,0,60.4,0,23.6,0,18.6,0,19.7,0,72.8,0
11/1/2003 17:45,22.5,0,60.6,0,23.5,0,18.7,0,19.7,0,71.8,0
11/1/2003 18:00,22.4,0,61.1,0,23.4,0,18.7,0,19.7,0,70.8,0
11/1/2003 18:15,22.3,0,61.4,0,23.4,0,18.7,0,19.5,0,71.8,0
11/1/2003 18:30,22.3,0,61.8,0,23.3,0,18.8,0,19.3,0,72.8,0
11/1/2003 18:45,22.2,0,62.2,0,23.2,0,18.8,0,19.2,0,73.8,0
11/1/2003 19:00,22.1,0,62.4,0,23.2,0,18.9,0,19,0,74.8,0
11/1/2003 19:15,22.1,0,62.6,0,23.1,0,18.9,0,18.9,0,75.6,0
11/1/2003 19:30,22.1,0,63,0,23.1,0,19,0,18.8,0,76.3,0
11/1/2003 19:45,22,0,63.2,0,23,0,19,0,18.7,0,77.1,0
11/1/2003 20:00,22,0,63.4,0,23,0,19.1,0,18.6,0,77.8,0
11/1/2003 20:15,21.9,0,63.6,0,22.9,0,19.1,0,18.5,0,78.1,0
11/1/2003 20:30,21.9,0,63.8,0,22.9,0,19.2,0,18.5,0,78.3,0
11/1/2003 20:45,21.9,0,63.6,0,22.8,0,19.2,0,18.4,0,78.6,0
11/1/2003 21:00,22,0,63.3,0,22.8,0,19.2,0,18.4,0,78.8,0
11/1/2003 21:15,22.1,0,63.3,0,22.8,0,19.3,0,18.4,0,78.6,0
11/1/2003 21:30,22.1,0,63.3,0,22.8,0,19.3,0,18.4,0,78.3,0
11/1/2003 21:45,22.2,0,63.5,0,22.9,0,19.4,0,18.5,0,78.1,0
11/1/2003 22:00,22.3,0,63.2,0,22.9,0,19.4,0,18.5,0,77.8,0
11/1/2003 22:15,22.4,0,65,0,22.9,0,19.5,0,18.5,0,77.6,0
11/1/2003 22:30,22.5,0,65.6,0,23,0,19.5,0,18.4,0,77.3,0
11/1/2003 22:45,22.5,0,65.2,0,23,0,18.9,0,18.4,0,77.1,0
11/1/2003 23:00,22.6,0,64.3,0,23,0,18.6,0,18.4,0,76.8,0
11/1/2003 23:15,22.6,0,64.1,0,23,0,18.6,0,18.1,0,77.3,0
11/1/2003 23:30,22.6,0,64.6,0,23,0,18.6,0,17.8,0,77.8,0
11/1/2003 23:45,22.9,0,64.2,0,23,0,18.7,0,17.6,0,78.3,0
11/2/2003 0:00,23.1,0,63.2,0,23.1,0,18.7,0,17.3,0,78.8,0
11/2/2003 0:15,23.3,0,62.1,0,23.1,0,18.8,0,17,0,79.6,0
11/2/2003 0:30,23.4,0,61.3,0,23.1,0,18.8,0,16.7,0,80.3,0
11/2/2003 0:45,23.6,0,60.1,0,23.1,0,18.9,0,16.4,0,81.1,0
11/2/2003 1:00,23.6,0,60.9,0,23.2,0,18.9,0,16.1,0,81.8,0
11/2/2003 1:15,23.6,0,61,0,23.1,0,19,0,16.1,0,81.3,0
11/2/2003 1:30,23.5,0,60.7,0,23.1,0,19,0,16.2,0,80.8,0
11/2/2003 1:45,23.5,0,60.8,0,23.1,0,18.7,0,16.2,0,80.3,0
11/2/2003 2:00,23.4,0,60.8,0,23,0,18.8,0,16.3,0,79.8,0
11/2/2003 2:15,23.4,0,60.9,0,23,0,18.8,0,16.3,0,78.6,0
11/2/2003 2:30,23.3,0,60.9,0,23,0,18.9,0,16.3,0,77.3,0
11/2/2003 2:45,23.3,0,61,0,23,0,18.9,0,16.4,0,76.1,0
11/2/2003 3:00,23.1,0,60.9,0,23,0,18.9,0,16.4,0,74.8,0
11/2/2003 3:15,23,0,60.7,0,23.1,0,19,0,16.3,0,74.8,0
11/2/2003 3:30,22.9,0,60.5,0,23.1,0,19,0,16.2,0,74.8,0
11/2/2003 3:45,22.8,0,60.4,0,23,0,19.1,0,16.2,0,74.8,0
11/2/2003 4:00,22.7,0,60.4,0,23,0,19.1,0,16.1,0,74.8,0
11/2/2003 4:15,22.5,0,60.4,0,23,0,19.1,0,16,0,75.1,0
11/2/2003 4:30,22.5,0,60.3,0,23,0,19.2,0,16,0,75.3,0
11/2/2003 4:45,22.3,0,60.3,0,23,0,19.2,0,15.9,0,75.6,0
11/2/2003 5:00,22.2,0,60.3,0,23,0,19.3,0,15.9,0,75.8,0
11/2/2003 5:15,22.1,0,60.8,0,23,0,19.3,0,15.8,0,75.8,0
11/2/2003 5:30,22,0,61.2,0,22.9,0,19.3,0,15.8,0,75.8,0
11/2/2003 5:45,21.9,0,61.1,0,22.9,0,19.4,0,15.7,0,75.8,0
11/2/2003 6:00,21.8,0,61.2,0,22.9,0,19.4,0,15.7,0,75.8,0
11/2/2003 6:15,21.8,0,61.7,0,22.8,0,19.4,0,15.7,0,75.3,0
11/2/2003 6:30,21.7,0,61.8,0,22.8,0,19.5,0,15.8,0,74.8,0
11/2/2003 6:45,22,0,61.6,0,22.7,0,19.5,0,15.8,0,74.3,0
11/2/2003 7:00,22.4,0,61,0,22.7,0,19.5,0,15.9,0,73.8,0
11/2/2003 7:15,22.6,0,60.2,0,22.7,0,19.5,0,16.2,0,72.3,0
11/2/2003 7:30,22.9,0,59.6,0,22.6,0,19.6,0,16.5,0,70.8,0
11/2/2003 7:45,22.9,0,59.6,0,22.6,0,19.6,0,16.8,0,69.3,0
11/2/2003 8:00,22.9,0,59.3,0,22.6,0,19.6,0,17.1,0,67.8,0
11/2/2003 8:15,22.9,0,59.5,0,22.6,0,19.6,0,17.4,0,67.3,0
11/2/2003 8:30,22.9,0,59.7,0,22.6,0,19.7,0,17.6,0,66.8,0
11/2/2003 8:45,23,0,59.8,0,22.7,0,19.7,0,17.9,0,66.3,0
11/2/2003 9:00,23,0,59.9,0,22.8,0,19.7,0,18.2,0,65.8,0
11/2/2003 9:15,23.1,0,60,0,22.9,0,19.7,0,18.7,0,64.3,0
11/2/2003 9:30,23.2,0,59.6,0,23.1,0,19.1,0,19.1,0,62.8,0
11/2/2003 9:45,23.2,0,58.9,0,23.2,0,19.2,0,19.6,0,61.3,0
11/2/2003 10:00,23.3,0,58.5,0,23.3,0,19.2,0,20.1,0,59.8,0
11/2/2003 10:15,23.3,0,58.4,0,23.4,0,19.2,0,20.2,0,58.8,0
11/2/2003 10:30,23.3,0,58,0,23.5,0,19.2,0,20.3,0,57.8,0
11/2/2003 10:45,23.4,0,58,0,23.6,0,19.3,0,20.5,0,56.8,0
11/2/2003 11:00,23.5,0,58.1,0,23.8,0,19.3,0,20.6,0,55.8,0
11/2/2003 11:15,23.7,0,58,0,24,0,19.3,0,20.9,0,54.8,0
11/2/2003 11:30,23.8,0,57.9,0,24.2,0,19.4,0,21.3,0,53.8,0
11/2/2003 11:45,24,0,57.9,0,24.4,0,19.4,0,21.6,0,52.8,0
11/2/2003 12:00,24.2,0,57.7,0,24.6,0,19.4,0,22,0,51.8,0
11/2/2003 12:15,24.3,0,57.6,0,24.8,0,19.5,0,22.2,0,51.3,0
11/2/2003 12:30,24.5,0,57.5,0,25,0,19.5,0,22.4,0,50.8,0
11/2/2003 12:45,24.6,0,57.4,0,25.3,0,19.5,0,22.7,0,50.3,0
11/2/2003 13:00,24.8,0,57.5,0,25.6,0,19.5,0,22.9,0,49.8,0
11/2/2003 13:15,25,0,58.2,0,25.8,0,19.6,0,22.8,0,50.5,0
11/2/2003 13:30,25.3,0,58.2,0,26.1,0,19.6,0,22.6,0,51.3,0
11/2/2003 13:45,25.5,0,53.7,0,26.1,0,19.6,0,22.5,0,52,0
11/2/2003 14:00,25.6,0,50.7,0,26.1,0,19.7,0,22.4,0,52.8,0
11/2/2003 14:15,25.8,0,50.3,0,26.1,0,19.1,0,22.4,0,53.8,0
11/2/2003 14:30,25.9,0,51,0,26.2,0,19.2,0,22.4,0,54.8,0
11/2/2003 14:45,25.9,0,49,0,26.3,0,19.2,0,22.5,0,55.8,0
11/2/2003 15:00,26.1,0,50.8,0,26.4,0,19.3,0,22.5,0,56.8,0
11/2/2003 15:15,26.1,0,51,0,26.6,0,18.9,0,22.4,0,56,0
11/2/2003 15:30,26,0,49.2,0,26.7,0,18.9,0,22.3,0,55.3,0
11/2/2003 15:45,25.9,0,48.7,0,26.7,0,19,0,22.2,0,54.5,0
11/2/2003 16:00,25.6,0,48.8,0,26.7,0,19,0,22.1,0,53.8,0
11/2/2003 16:15,25.5,0,49.4,0,26.7,0,19.1,0,21.7,0,55.8,0
11/2/2003 16:30,25.3,0,50.3,0,26.6,0,19.1,0,21.4,0,57.8,0
11/2/2003 16:45,25.4,0,51.1,0,26.5,0,18.8,0,21,0,59.8,0
11/2/2003 17:00,25.6,0,52.1,0,26.4,0,18.6,0,20.7,0,61.8,0
11/2/2003 17:15,25.5,0,52.1,0,26.4,0,18.6,0,20.4,0,62.8,0
11/2/2003 17:30,25.4,0,52.5,0,26.3,0,18.7,0,20.2,0,63.8,0
11/2/2003 17:45,25.3,0,54.7,0,26.2,0,18.7,0,19.9,0,64.8,0
11/2/2003 18:00,25.4,0,55.6,0,26.1,0,18.8,0,19.7,0,65.8,0
11/2/2003 18:15,25.1,0,57.1,0,26.1,0,18.9,0,19.7,0,66.3,0
11/2/2003 18:30,25.2,0,57.9,0,26,0,18.9,0,19.7,0,66.8,0
11/2/2003 18:45,25.2,0,57.8,0,25.9,0,18.6,0,19.7,0,67.3,0
11/2/2003 19:00,25.2,0,60.7,0,25.9,0,18.7,0,19.7,0,67.8,0
11/2/2003 19:15,25.3,0,61.2,0,26,0,18.7,0,19.8,0,69.6,0
11/2/2003 19:30,25.5,0,63.6,0,26.4,0,18.8,0,19.8,0,71.3,0
11/2/2003 19:45,25.7,0,66.5,0,26.7,0,18.9,0,19.9,0,73.1,0
11/2/2003 20:00,25.9,0,68.8,0,26.7,0,18.9,0,20,0,74.8,0
11/2/2003 20:15,26.1,0,70.1,0,26.6,0,19,0,19.9,0,74.8,0
11/2/2003 20:30,26.1,0,69.7,0,26.5,0,19.1,0,19.9,0,74.8,0
11/2/2003 20:45,26.2,0,68.3,0,26.3,0,19.1,0,19.8,0,74.8,0
11/2/2003 21:00,26.2,0,66.5,0,26.2,0,19.2,0,19.8,0,74.8,0
11/2/2003 21:15,26.2,0,64.8,0,26.1,0,19.3,0,19.8,0,74.6,0
11/2/2003 21:30,26.2,0,63.6,0,26,0,19.3,0,19.7,0,74.3,0
11/2/2003 21:45,26.2,0,62.5,0,26,0,19.4,0,19.7,0,74.1,0
11/2/2003 22:00,26.1,0,61.4,0,25.9,0,19.5,0,19.7,0,73.8,0
11/2/2003 22:15,26,0,60.4,0,25.8,0,19.5,0,19.6,0,75.1,0
11/2/2003 22:30,25.9,0,60.2,0,25.7,0,19.1,0,19.5,0,76.3,0
11/2/2003 22:45,25.7,0,60,0,25.7,0,19.1,0,19.4,0,77.6,0
11/2/2003 23:00,25.6,0,60.3,0,25.7,0,19.2,0,19.3,0,78.8,0
11/2/2003 23:15,25.5,0,60.1,0,25.7,0,19.2,0,19.2,0,79.1,0
11/2/2003 23:30,25.4,0,60.1,0,25.6,0,19.3,0,19,0,79.3,0
11/2/2003 23:45,25.5,0,61.8,0,25.6,0,19.3,0,18.9,0,79.6,0
11/3/2003 0:00,25.5,0,62.1,0,25.6,0,19.4,0,18.8,0,79.8,0
11/3/2003 0:15,25.4,0,61.7,0,25.6,0,19.4,0,18.6,0,80.8,0
11/3/2003 0:30,25.3,0,61.3,0,25.5,0,19.5,0,18.5,0,81.8,0
11/3/2003 0:45,25.2,0,60.8,0,25.4,0,19.5,0,18.3,0,82.8,0
11/3/2003 1:00,25,0,60.6,0,25.4,0,19.6,0,18.2,0,83.8,0
11/3/2003 1:15,24.9,0,60.4,0,25.3,0,19.6,0,18,0,84.3,0
11/3/2003 1:30,24.8,0,60.3,0,25.2,0,19.7,0,17.8,0,84.8,0
11/3/2003 1:45,24.7,0,60.3,0,25.1,0,19.8,0,17.7,0,85.3,0
11/3/2003 2:00,24.6,0,60.3,0,25.1,0,19.8,0,17.5,0,85.8,0
11/3/2003 2:15,24.5,0,60.4,0,25,0,19.9,0,17.4,0,86.1,0
11/3/2003 2:30,24.4,0,60.3,0,24.9,0,19.9,0,17.2,0,86.3,0
11/3/2003 2:45,24.3,0,60.3,0,24.9,0,19.9,0,17.1,0,86.6,0
11/3/2003 3:00,24.3,0,60.3,0,24.8,0,20,0,17,0,86.8,0
11/3/2003 3:15,24.2,0,60.3,0,24.7,0,20,0,16.8,0,87.6,0
11/3/2003 3:30,24.1,0,60.7,0,24.7,0,19.6,0,16.6,0,88.3,0
11/3/2003 3:45,24,0,61.2,0,24.6,0,19,0,16.4,0,89.1,0
11/3/2003 4:00,24,0,61.6,0,24.6,0,19.1,0,16.2,0,89.8,0
11/3/2003 4:15,23.9,0,61.8,0,24.5,0,19.1,0,16.2,0,90.1,0
11/3/2003 4:30,23.9,0,62,0,24.4,0,19.2,0,16.2,0,90.3,0
11/3/2003 4:45,23.8,0,62.1,0,24.4,0,19.2,0,16.2,0,90.6,0
11/3/2003 5:00,23.7,0,62.1,0,24.3,0,19.3,0,16.2,0,90.8,0
11/3/2003 5:15,23.6,0,62,0,24.3,0,19.3,0,16.2,0,90.6,0
11/3/2003 5:30,23.6,0,62.2,0,24.2,0,19.4,0,16.2,0,90.3,0
11/3/2003 5:45,23.5,0,62.2,0,24.1,0,19.4,0,16.3,0,90.1,0
11/3/2003 6:00,23.4,0,62.3,0,24.1,0,19.5,0,16.3,0,89.8,0
11/3/2003 6:15,23.3,0,62.3,0,24,0,19.5,0,16.4,0,89.6,0
11/3/2003 6:30,23.2,0,62.5,0,23.9,0,19.6,0,16.4,0,89.3,0
11/3/2003 6:45,23.5,0,61.9,0,23.9,0,19.6,0,16.5,0,89.1,0
11/3/2003 7:00,23.7,0,61.2,0,23.8,0,19.7,0,16.6,0,88.8,0
11/3/2003 7:15,23.9,0,61.1,0,23.9,0,19.1,0,16.7,0,87.6,0
11/3/2003 7:30,24,0,60.8,0,23.9,0,19.2,0,16.9,0,86.3,0
11/3/2003 7:45,23.9,0,60.5,0,23.9,0,19.2,0,17,0,85.1,0
11/3/2003 8:00,23.9,0,60.7,0,23.9,0,18.5,0,17.2,0,83.8,0
11/3/2003 8:15,23.8,0,61.3,0,23.9,0,18.5,0,17.4,0,82.6,0
11/3/2003 8:30,23.8,0,61.9,0,23.9,0,18.6,0,17.6,0,81.3,0
11/3/2003 8:45,23.7,0,61.6,0,23.8,0,18.6,0,17.9,0,80.1,0
11/3/2003 9:00,23.7,0,61.4,0,23.8,0,18.7,0,18.1,0,78.8,0
11/3/2003 9:15,23.5,0,60.8,0,23.7,0,18.7,0,18.1,0,79.1,0
11/3/2003 9:30,23.4,0,60.2,0,23.7,0,18.8,0,18,0,79.3,0
11/3/2003 9:45,23.4,0,60.2,0,23.7,0,18.8,0,18,0,79.6,0
11/3/2003 10:00,23.3,0,59.9,0,23.7,0,18.9,0,18,0,79.8,0
11/3/2003 10:15,23.3,0,59.9,0,23.6,0,18.9,0,18,0,79.8,0
11/3/2003 10:30,23.2,0,59.9,0,23.6,0,19,0,18.1,0,79.8,0
11/3/2003 10:45,23.2,0,60.1,0,23.6,0,19,0,18.1,0,79.8,0
11/3/2003 11:00,23.2,0,60.3,0,23.6,0,19.1,0,18.2,0,79.8,0
11/3/2003 11:15,23.1,0,60.2,0,23.6,0,19.2,0,18.2,0,79.3,0
11/3/2003 11:30,23.1,0,60.3,0,23.5,0,19.2,0,18.2,0,78.8,0
11/3/2003 11:45,23,0,60.1,0,23.5,0,19.2,0,18.3,0,78.3,0
11/3/2003 12:00,23,0,60.1,0,23.5,0,19.3,0,18.3,0,77.8,0
11/3/2003 12:15,22.9,0,60.2,0,23.5,0,19.4,0,18.4,0,77.6,0
11/3/2003 12:30,22.9,0,60.8,0,23.4,0,19.4,0,18.4,0,77.3,0
11/3/2003 12:45,22.9,0,61.1,0,23.4,0,19.5,0,18.5,0,77.1,0
11/3/2003 13:00,22.8,0,61.3,0,23.4,0,19.5,0,18.6,0,76.8,0
11/3/2003 13:15,22.8,0,61.8,0,23.4,0,19.6,0,18.7,0,77.8,0
11/3/2003 13:30,22.7,0,61.9,0,23.4,0,19.6,0,18.8,0,78.8,0
11/3/2003 13:45,22.7,0,62.2,0,23.4,0,19.6,0,19,0,79.8,0
11/3/2003 14:00,22.7,0,63.5,0,23.3,0,19.7,0,19.1,0,80.8,0
11/3/2003 14:15,22.8,0,63.8,0,23.3,0,19.2,0,19.2,0,81.1,0
11/3/2003 14:30,22.7,0,63.1,0,23.3,0,19.2,0,19.3,0,81.3,0
11/3/2003 14:45,22.7,0,62.5,0,23.3,0,19.3,0,19.4,0,81.6,0
11/3/2003 15:00,22.7,0,62.1,0,23.2,0,19.3,0,19.5,0,81.8,0
11/3/2003 15:15,22.6,0,61.9,0,23.2,0,19.4,0,19.2,0,82.8,0
11/3/2003 15:30,22.6,0,61.7,0,23.2,0,19.4,0,18.9,0,83.8,0
11/3/2003 15:45,22.6,0,61.5,0,23.1,0,19.4,0,18.6,0,84.8,0
11/3/2003 16:00,22.6,0,61.5,0,23.1,0,19.5,0,18.3,0,85.8,0
11/3/2003 16:15,22.5,0,61.5,0,23.1,0,19.5,0,18.3,0,86.3,0
11/3/2003 16:30,22.5,0,61.4,0,23,0,19.6,0,18.4,0,86.8,0
11/3/2003 16:45,22.5,0,61.4,0,23,0,19.6,0,18.4,0,87.3,0
11/3/2003 17:00,22.5,0,61.5,0,22.9,0,19.6,0,18.5,0,87.8,0
11/3/2003 17:15,22.5,0,63.5,0,22.9,0,18.9,0,18.6,0,87.3,0
11/3/2003 17:30,22.5,0,63.2,0,22.9,0,19,0,18.6,0,86.8,0
11/3/2003 17:45,22.6,0,63.8,0,22.9,0,18.7,0,18.7,0,86.3,0
11/3/2003 18:00,22.7,0,63.5,0,22.9,0,18.7,0,18.8,0,85.8,0
11/3/2003 18:15,22.7,0,63.5,0,23.1,0,18.8,0,19.3,0,85.3,0
11/3/2003 18:30,22.7,0,63.2,0,23.4,0,18.8,0,19.7,0,84.8,0
11/3/2003 18:45,22.8,0,64.2,0,23.5,0,18.9,0,20.2,0,84.3,0
11/3/2003 19:00,22.8,0,64.2,0,23.6,0,18.9,0,20.7,0,83.8,0
11/3/2003 19:15,22.8,0,64.3,0,23.7,0,18.6,0,20.3,0,84.3,0
11/3/2003 19:30,22.8,0,63.7,0,23.7,0,18.7,0,19.9,0,84.8,0
11/3/2003 19:45,22.8,0,63.6,0,23.7,0,18.7,0,19.6,0,85.3,0
11/3/2003 20:00,22.8,0,63.3,0,23.7,0,18.8,0,19.2,0,85.8,0
11/3/2003 20:15,22.7,0,62.9,0,23.7,0,18.8,0,19,0,86.1,0
11/3/2003 20:30,22.7,0,62.9,0,23.7,0,18.9,0,18.8,0,86.3,0
11/3/2003 20:45,22.7,0,62.7,0,23.6,0,18.9,0,18.7,0,86.6,0
11/3/2003 21:00,22.6,0,62.6,0,23.6,0,19,0,18.5,0,86.8,0
11/3/2003 21:15,22.6,0,62.3,0,23.6,0,19,0,18.7,0,87.6,0
11/3/2003 21:30,22.6,0,62.6,0,23.6,0,19.1,0,18.8,0,88.3,0
11/3/2003 21:45,22.7,0,63.1,0,23.5,0,18.2,0,19,0,89.1,0
11/3/2003 22:00,22.8,0,65.3,0,23.5,0,18.1,0,19.2,0,89.8,0
11/3/2003 22:15,22.9,0,70.2,0,23.5,0,18.2,0,18.9,0,88.6,0
11/3/2003 22:30,23,0,68.6,0,23.5,0,18.2,0,18.6,0,87.3,0
11/3/2003 22:45,23.1,0,69.1,0,23.5,0,18.3,0,18.4,0,86.1,0
11/3/2003 23:00,23.1,0,68.4,0,23.5,0,18.3,0,18.1,0,84.8,0
11/3/2003 23:15,23.1,0,68.8,0,23.6,0,18.4,0,18.1,0,84.3,0
11/3/2003 23:30,23.1,0,68.6,0,23.6,0,18.4,0,18,0,83.8,0
11/3/2003 23:45,23.1,0,68.6,0,23.6,0,18.5,0,18,0,83.3,0
11/4/2003 0:00,23,0,68.4,0,23.7,0,18.6,0,18,0,82.8,0
11/4/2003 0:15,23,0,68.3,0,23.7,0,18.6,0,18,0,83.1,0
11/4/2003 0:30,23,0,68.3,0,23.8,0,18.7,0,18.1,0,83.3,0
11/4/2003 0:45,23,0,68.1,0,23.8,0,18.7,0,18.1,0,83.6,0
11/4/2003 1:00,23,0,68.1,0,23.8,0,18.8,0,18.2,0,83.8,0
11/4/2003 1:15,22.9,0,68.1,0,23.8,0,18.8,0,18.2,0,83.3,0
11/4/2003 1:30,22.9,0,68.1,0,23.8,0,18.9,0,18.2,0,82.8,0
11/4/2003 1:45,22.9,0,68,0,23.7,0,18.9,0,18.3,0,82.3,0
11/4/2003 2:00,22.8,0,67.8,0,23.7,0,19,0,18.3,0,81.8,0
11/4/2003 2:15,22.8,0,67.5,0,23.7,0,19,0,18.3,0,82.1,0
11/4/2003 2:30,22.8,0,67.3,0,23.6,0,19.1,0,18.2,0,82.3,0
11/4/2003 2:45,22.7,0,67.2,0,23.6,0,19.1,0,18.2,0,82.6,0
11/4/2003 3:00,22.7,0,67.2,0,23.6,0,19.2,0,18.2,0,82.8,0
11/4/2003 3:15,22.7,0,67.2,0,23.6,0,19.2,0,18.2,0,82.6,0
11/4/2003 3:30,22.8,0,67.2,0,23.6,0,19.1,0,18.2,0,82.3,0
11/4/2003 3:45,22.8,0,67,0,23.6,0,19.1,0,18.3,0,82.1,0
11/4/2003 4:00,22.8,0,66.8,0,23.6,0,19.2,0,18.3,0,81.8,0
11/4/2003 4:15,22.8,0,66.7,0,23.6,0,18.9,0,18.3,0,82.1,0
11/4/2003 4:30,22.9,0,66.6,0,23.6,0,18.9,0,18.3,0,82.3,0
11/4/2003 4:45,22.9,0,66.4,0,23.5,0,19,0,18.3,0,82.6,0
11/4/2003 5:00,22.9,0,66.3,0,23.5,0,19,0,18.3,0,82.8,0
11/4/2003 5:15,22.8,0,66.1,0,23.6,0,19.1,0,18.1,0,83.8,0
11/4/2003 5:30,22.8,0,66,0,23.6,0,19.1,0,17.8,0,84.8,0
11/4/2003 5:45,22.8,0,65.9,0,23.7,0,19.2,0,17.6,0,85.8,0
11/4/2003 6:00,22.7,0,65.8,0,23.7,0,19.2,0,17.4,0,86.8,0
11/4/2003 6:15,22.7,0,65.8,0,23.8,0,19.2,0,17.8,0,79.8,0
11/4/2003 6:30,22.7,0,66.1,0,23.7,0,19.3,0,18.2,0,72.8,0
11/4/2003 6:45,23.3,0,65.2,0,23.7,0,19.3,0,18.7,0,65.8,0
11/4/2003 7:00,23.5,0,64.8,0,23.7,0,19.4,0,19.1,0,58.8,0
11/4/2003 7:15,23.6,0,64.1,0,23.7,0,19.4,0,19.1,0,56.5,0
11/4/2003 7:30,23.6,0,64.5,0,23.8,0,19.5,0,19.1,0,54.3,0
11/4/2003 7:45,23.9,0,64.6,0,23.8,0,19.5,0,19.2,0,52,0
11/4/2003 8:00,23.8,0,64.5,0,23.8,0,19.5,0,19.2,0,49.8,0
11/4/2003 8:15,23.7,0,64.1,0,23.7,0,19.6,0,19.5,0,50.5,0
11/4/2003 8:30,23.7,0,64.2,0,23.8,0,19,0,19.8,0,51.3,0
11/4/2003 8:45,23.7,0,63.2,0,23.8,0,19,0,20.2,0,52,0
11/4/2003 9:00,23.8,0,63.1,0,23.8,0,19.1,0,20.5,0,52.8,0
11/4/2003 9:15,23.7,0,62.6,0,23.9,0,18.7,0,20.4,0,50.8,0
11/4/2003 9:30,23.7,0,62.7,0,24,0,18.7,0,20.3,0,48.8,0
11/4/2003 9:45,23.6,0,62.6,0,24,0,18.7,0,20.3,0,46.8,0
11/4/2003 10:00,23.6,0,62.6,0,24,0,18.8,0,20.2,0,44.8,0
11/4/2003 10:15,23.6,0,62.7,0,24,0,18.8,0,20.6,0,43.5,0
11/4/2003 10:30,23.6,0,62.7,0,24.1,0,18.9,0,20.9,0,42.3,0
11/4/2003 10:45,23.6,0,62.6,0,24.2,0,18.9,0,21.3,0,41,0
11/4/2003 11:00,23.7,0,62.2,0,24.2,0,19,0,21.7,0,39.8,0
11/4/2003 11:15,23.7,0,61.9,0,24.3,0,19,0,21.6,0,38.8,0
11/4/2003 11:30,23.7,0,61.6,0,24.4,0,19.1,0,21.6,0,37.8,0
11/4/2003 11:45,23.7,0,61.4,0,24.4,0,19.1,0,21.5,0,36.8,0
11/4/2003 12:00,23.7,0,61.1,0,24.5,0,19.2,0,21.5,0,35.8,0
11/4/2003 12:15,23.7,0,60.8,0,24.5,0,19.2,0,21.4,0,35.5,0
11/4/2003 12:30,23.7,0,60.6,0,24.5,0,19.3,0,21.4,0,35.3,0
11/4/2003 12:45,23.7,0,60.4,0,24.5,0,19.3,0,21.3,0,35,0
11/4/2003 13:00,23.7,0,59.9,0,24.5,0,19.4,0,21.3,0,34.8,0
11/4/2003 13:15,23.7,0,59.4,0,24.6,0,19.4,0,21.3,0,35,0
11/4/2003 13:30,23.7,0,59.2,0,24.6,0,19.4,0,21.3,0,35.3,0
11/4/2003 13:45,23.7,0,59.5,0,24.6,0,19.5,0,21.4,0,35.5,0
11/4/2003 14:00,23.7,0,59.4,0,24.6,0,19.5,0,21.4,0,35.8,0
11/4/2003 14:15,23.7,0,59.3,0,24.6,0,19.6,0,21.4,0,38.5,0
11/4/2003 14:30,23.7,0,59.5,0,24.6,0,19.6,0,21.4,0,41.3,0
11/4/2003 14:45,23.7,0,59.2,0,24.6,0,19.6,0,21.5,0,44,0
11/4/2003 15:00,23.7,0,59.2,0,24.6,0,19.7,0,21.5,0,46.8,0
11/4/2003 15:15,23.7,0,59.2,0,24.6,0,19.7,0,21.1,0,48.5,0
11/4/2003 15:30,23.7,0,59.3,0,24.6,0,19.8,0,20.7,0,50.3,0
11/4/2003 15:45,23.6,0,59.3,0,24.6,0,19.8,0,20.4,0,52,0
11/4/2003 16:00,23.6,0,59.5,0,24.5,0,19.9,0,20,0,53.8,0
11/4/2003 16:15,23.6,0,59.5,0,24.5,0,19.9,0,19.8,0,54.5,0
11/4/2003 16:30,23.5,0,59.4,0,24.4,0,19.9,0,19.6,0,55.3,0
11/4/2003 16:45,23.5,0,59.6,0,24.4,0,20,0,19.5,0,56,0
11/4/2003 17:00,23.4,0,59.4,0,24.3,0,20,0,19.3,0,56.8,0
11/4/2003 17:15,23.4,0,59.5,0,24.3,0,20.1,0,18.8,0,56.3,0
11/4/2003 17:30,23.3,0,59.5,0,24.2,0,20.1,0,18.4,0,55.8,0
11/4/2003 17:45,23.3,0,59.5,0,24.2,0,20.1,0,17.9,0,55.3,0
11/4/2003 18:00,23.2,0,59.6,0,24.1,0,20.2,0,17.5,0,54.8,0
11/4/2003 18:15,23.1,0,59.3,0,24,0,19,0,17.4,0,55,0
11/4/2003 18:30,23,0,58.8,0,23.9,0,19.1,0,17.3,0,55.3,0
11/4/2003 18:45,23,0,59.3,0,23.9,0,19.1,0,17.2,0,55.5,0
11/4/2003 19:00,22.9,0,58.8,0,23.8,0,19.1,0,17.1,0,55.8,0
11/4/2003 19:15,22.8,0,57.5,0,23.7,0,19,0,17,0,55.8,0
11/4/2003 19:30,22.8,0,57.5,0,23.6,0,19,0,16.9,0,55.8,0
11/4/2003 19:45,22.7,0,57.7,0,23.6,0,19.1,0,16.8,0,55.8,0
11/4/2003 20:00,22.7,0,58.1,0,23.5,0,19.1,0,16.7,0,55.8,0
11/4/2003 20:15,22.6,0,58.2,0,23.4,0,19.1,0,16.7,0,55.5,0
11/4/2003 20:30,22.5,0,58.3,0,23.4,0,19.2,0,16.6,0,55.3,0
11/4/2003 20:45,22.4,0,58,0,23.4,0,19.2,0,16.6,0,55,0
11/4/2003 21:00,22.5,0,58.6,0,23.4,0,19.3,0,16.6,0,54.8,0
11/4/2003 21:15,22.5,0,60.1,0,23.4,0,19.3,0,16.6,0,55,0
11/4/2003 21:30,22.7,0,61.1,0,23.4,0,19.4,0,16.6,0,55.3,0
11/4/2003 21:45,22.7,0,60.4,0,23.4,0,18.4,0,16.6,0,55.5,0
11/4/2003 22:00,22.6,0,60.8,0,23.3,0,18.4,0,16.6,0,55.8,0
11/4/2003 22:15,22.6,0,59.4,0,23.3,0,18.5,0,16.6,0,55.5,0
11/4/2003 22:30,22.5,0,57.2,0,23.3,0,18.5,0,16.5,0,55.3,0
11/4/2003 22:45,22.5,0,58.5,0,23.3,0,18.6,0,16.5,0,55,0
11/4/2003 23:00,22.5,0,59.3,0,23.3,0,18.7,0,16.5,0,54.8,0
11/4/2003 23:15,22.6,0,63.1,0,23.3,0,18.7,0,16.4,0,54.8,0
11/4/2003 23:30,22.6,0,62.9,0,23.4,0,18.8,0,16.4,0,54.8,0
11/4/2003 23:45,22.5,0,63.5,0,23.4,0,18.8,0,16.3,0,54.8,0
11/5/2003 0:00,22.5,0,63.7,0,23.4,0,18.8,0,16.3,0,54.8,0
11/5/2003 0:15,22.4,0,63.5,0,23.4,0,18.9,0,16.3,0,54.8,0
11/5/2003 0:30,22.4,0,63.4,0,23.3,0,18.9,0,16.3,0,54.8,0
11/5/2003 0:45,22.4,0,63.3,0,23.3,0,19,0,16.4,0,54.8,0
11/5/2003 1:00,22.3,0,63.2,0,23.2,0,19,0,16.4,0,54.8,0
11/5/2003 1:15,22.3,0,63.1,0,23.2,0,19.1,0,16.3,0,55.3,0
11/5/2003 1:30,22.3,0,63,0,23.1,0,19.1,0,16.2,0,55.8,0
11/5/2003 1:45,22.3,0,63,0,23,0,18.9,0,16.1,0,56.3,0
11/5/2003 2:00,22.3,0,62.9,0,23,0,18.9,0,16,0,56.8,0
11/5/2003 2:15,22.3,0,62.8,0,22.9,0,19,0,15.9,0,57.8,0
11/5/2003 2:30,22.2,0,62.5,0,22.9,0,19,0,15.8,0,58.8,0
11/5/2003 2:45,22.2,0,62.4,0,22.8,0,19,0,15.7,0,59.8,0
11/5/2003 3:00,22.2,0,62.2,0,22.8,0,19.1,0,15.6,0,60.8,0
11/5/2003 3:15,22.2,0,62.2,0,22.8,0,19.1,0,15.5,0,61.3,0
11/5/2003 3:30,22.2,0,62.1,0,22.7,0,19.2,0,15.4,0,61.8,0
11/5/2003 3:45,22.5,0,61.5,0,22.7,0,19.2,0,15.4,0,62.3,0
11/5/2003 4:00,22.8,0,61,0,22.6,0,19.2,0,15.3,0,62.8,0
11/5/2003 4:15,23,0,60.3,0,22.6,0,19.3,0,15.3,0,62.8,0
11/5/2003 4:30,23.3,0,59.5,0,22.6,0,19.3,0,15.3,0,62.8,0
11/5/2003 4:45,23.6,0,58.9,0,22.6,0,19.3,0,15.4,0,62.8,0
11/5/2003 5:00,23.6,0,58.5,0,22.5,0,19.4,0,15.4,0,62.8,0
11/5/2003 5:15,23.7,0,58.1,0,22.5,0,19.4,0,15.4,0,63,0
11/5/2003 5:30,23.8,0,57.4,0,22.5,0,19.1,0,15.3,0,63.3,0
11/5/2003 5:45,23.8,0,57,0,22.5,0,19.2,0,15.3,0,63.5,0
11/5/2003 6:00,23.9,0,56.8,0,22.6,0,19.2,0,15.3,0,63.8,0
11/5/2003 6:15,24,0,56.6,0,22.6,0,19.2,0,15.3,0,63.8,0
11/5/2003 6:30,23.9,0,56.6,0,22.7,0,19.3,0,15.4,0,63.8,0
11/5/2003 6:45,24,0,55.4,0,22.5,0,19.3,0,15.4,0,63.8,0
11/5/2003 7:00,23.9,0,54.5,0,22,0,19.3,0,15.5,0,63.8,0
11/5/2003 7:15,23.9,0,54.1,0,21.7,0,19.3,0,15.5,0,64.1,0